Simultaneous Nadir Overpasses (SNOs) Predictions

Prediction of SNOs between AQUA and METOP-C Satellite Orbit:

Table of predicted SNOs for the next 14.0 days since TLE Epoch: 1/5/2025
Index Date (AQUA) Time (AQUA) Lat,Lon (AQUA) SZA (AQUA ) Date (METOP-C) Time (METOP-C) Lat,Lon (METOP-C) SZA (METOP-C ) Distance(km) Time Diff (sec)
1 01/06/2025 13:11:00 -76.06, 162.95 81.60 01/06/2025 13:10:27 -76.06, 163.01 81.60 1.62 33
2 01/06/2025 14:00:21 76.09, -29.48 98.43 01/06/2025 14:01:07 76.08, -29.61 98.42 3.77 46
3 01/09/2025 02:50:11 76.10, 138.10 98.10 01/09/2025 02:49:59 76.09, 138.22 98.10 3.31 12
4 01/09/2025 03:39:30 -76.13, -54.34 81.87 01/09/2025 03:40:39 -76.14, -54.27 81.86 2.27 69
5 01/11/2025 15:39:56 76.04, -54.09 97.65 01/11/2025 15:38:51 76.04, -54.17 97.66 2.16 65
6 01/11/2025 16:29:16 -76.12, 113.32 82.27 01/11/2025 16:29:31 -76.09, 113.34 82.30 2.74 15
7 01/14/2025 05:19:00 -76.08, -78.94 82.74 01/14/2025 05:18:23 -76.07, -78.96 82.75 1.49 37
8 01/14/2025 06:08:21 76.13, 88.59 97.30 01/14/2025 06:09:02 76.13, 88.58 97.31 0.49 41
9 01/16/2025 18:08:31 -75.54, 90.36 83.76 01/16/2025 18:07:27 -75.47, 86.89 83.80 96.87 64
10 01/16/2025 18:58:03 76.12,-103.77 96.83 01/16/2025 18:57:53 76.13,-103.63 96.83 3.78 10



Historial Predications of SNOs between AQUA and METOP-C
